User: anonymous   Login
Location: Unspecified
(0.0000°N, 0.0000°E)
Time: 01:58:06
(UTC+00:00)
Language:

UOSAT-12 - Orbit

View from above orbital plane
View from above orbital plane
View from above satellite
View from above satellite

Ground track
Ground track

The orbit data is extracted from the following two-line orbital elements,

1 25693U 99021A   17147.65672978 -.00000082 +00000-0 +83813-5 0  9995
2 25693 064.5549 188.9593 0033139 313.2489 046.5851 14.80734729977122
Epoch (UTC): 27 May 2017 15:45:41
Eccentricity: 0.0033139
inclination: 64.5549°
perigee height: 604 km
apogee height: 650 km
right ascension of ascending node: 188.9593°
argument of perigee: 313.2489°
revolutions per day: 14.80734729
mean anomaly at epoch: 46.5851°
orbit number at epoch: 97712

The dashed part of the orbit path shows where the satellite is in the earth's shadow,  

DLR